Weather History for Beaufort, SC

Change the Weather History Date:

Tuesday, February 26, 2013

  Actual Average (KNBC) Record (KNBC)
Temperature  
Mean Temperature 58 °F -  
Max Temperature 69 °F 63 °F 55 °F (2014)
Min Temperature 46 °F 39 °F 45 °F (2014)
Degree Days  
Heating Degree Days 8    
Growing Degree Days 8 (Base 50)    
Moisture  
Dew Point 57 °F    
Average Humidity 82    
Maximum Humidity 100    
Minimum Humidity 52    
Precipitation  
Precipitation 0.00 in - - ()
Sea Level Pressure  
Sea Level Pressure 29.71 in    
Wind  
Wind Speed 11 mph (SSE)    
Max Wind Speed 20 mph    
Max Gust Speed 34 mph    
Visibility 7 miles    
Events Rain , Thunderstorm    
Averages and records for this station are not official NWS values.
T = Trace of Precipitation, MM = Missing Value Source: NWS Daily Summary

Daily Weather History Graph

Daily Weather History Graph

Search for Another Location

Airport:

Trip Planner

Search our weather history database for the weather conditions in past years. The results will help you decide how hot, cold, wet, or windy it might be!

Date:

Astronomy

Feb. 26, 2013 Rise Set
Actual Time 6:53 AM EST 6:17 PM EST
Civil Twilight 6:28 AM EST 6:42 PM EST
Nautical Twilight 6:00 AM EST 7:11 PM EST
Astronomical Twilight 5:31 AM EST 7:39 PM EST
Moon 7:25 PM EST (2/26) 7:00 AM EST (2/26)
Length of Visible Light 12h 14m
Length of Day
11h 24m
Full, 99% of the Moon is Illuminated
Feb 26
Full
Mar 4
Last Quarter
Mar 11
New
Mar 19
First Quarter
Mar 27
Full

Hourly Weather History & Observations

Time (EST) Temp. Windchill Dew Point Humidity Pressure Visibility Wind Dir Wind Speed Gust Speed Precip Events Conditions
12:15 AM 46.4 °F 40.7 °F 44.6 °F 93% 29.94 in 10.0 mi NE 12.7 mph 20.7 mph N/A Rain Light Rain
12:35 AM 46.4 °F 40.7 °F 44.6 °F 93% 29.93 in 10.0 mi ENE 12.7 mph 17.3 mph N/A Rain Light Rain
12:55 AM 48.2 °F - 46.4 °F 93% 29.93 in 7.0 mi East 10.4 mph - N/A Rain Light Rain
1:15 AM 50.0 °F - 46.4 °F 87% 29.91 in 7.0 mi ENE 11.5 mph - N/A   Drizzle
1:35 AM 50.0 °F - 48.2 °F 94% 29.89 in 7.0 mi ENE 11.5 mph 17.3 mph N/A Rain Light Rain
1:55 AM 51.8 °F - 50.0 °F 94% 29.88 in 7.0 mi ENE 10.4 mph 17.3 mph N/A   Light Drizzle
2:15 AM 53.6 °F - 51.8 °F 94% 29.86 in 7.0 mi ENE 12.7 mph 18.4 mph N/A Rain Rain
2:35 AM 53.6 °F - 53.6 °F 100% 29.85 in 7.0 mi ENE 12.7 mph 21.9 mph N/A Rain Light Rain
2:55 AM 55.4 °F - 53.6 °F 94% 29.84 in 5.0 mi ENE 11.5 mph 18.4 mph N/A Rain Rain
3:15 AM 55.4 °F - 53.6 °F 94% 29.83 in 5.0 mi ENE 13.8 mph 19.6 mph N/A Rain Light Rain
3:35 AM 55.4 °F - 55.4 °F 100% 29.81 in 5.0 mi ENE 12.7 mph 18.4 mph N/A Rain Light Rain
3:55 AM 55.4 °F - 55.4 °F 100% 29.79 in 7.0 mi ENE 11.5 mph 16.1 mph N/A   Drizzle
4:15 AM 57.2 °F - 55.4 °F 94% 29.77 in 7.0 mi East 10.4 mph 19.6 mph N/A   Light Drizzle
4:35 AM 59.0 °F - 57.2 °F 94% 29.76 in 7.0 mi ENE 8.1 mph - N/A   Overcast
4:55 AM 59.0 °F - 57.2 °F 94% 29.75 in 4.0 mi East 8.1 mph - N/A   Overcast
5:15 AM 60.8 °F - 59.0 °F 94% 29.75 in 5.0 mi East 5.8 mph - N/A   Overcast
5:35 AM 60.8 °F - 60.8 °F 100% 29.75 in 4.0 mi East 5.8 mph - N/A   Overcast
5:55 AM 60.8 °F - 60.8 °F 100% 29.74 in 4.0 mi East 4.6 mph - N/A Rain Light Rain
6:15 AM 60.8 °F - 60.8 °F 100% 29.73 in 5.0 mi East 5.8 mph - N/A Rain Light Rain
6:35 AM 62.6 °F - 60.8 °F 94% 29.72 in 5.0 mi ESE 12.7 mph 18.4 mph N/A Rain Heavy Rain
7:15 AM 64.4 °F - 62.6 °F 94% 29.70 in 7.0 mi ESE 11.5 mph 19.6 mph N/A Rain , Thunderstorm Light Thunderstorms and Rain
7:35 AM 64.4 °F - 64.4 °F 100% 29.71 in 5.0 mi SE 15.0 mph 31.1 mph N/A Rain , Thunderstorm Light Thunderstorms and Rain
7:55 AM 64.4 °F - 64.4 °F 100% 29.72 in 2.5 mi SSE 4.6 mph - N/A Rain Rain
8:15 AM 64.4 °F - 64.4 °F 100% 29.71 in 7.0 mi SSE 10.4 mph 16.1 mph N/A Rain , Thunderstorm Light Thunderstorms and Rain
8:35 AM 66.2 °F - 64.4 °F 94% 29.72 in 5.0 mi SSE 8.1 mph - N/A Rain Light Rain
8:55 AM 68.0 °F - 66.2 °F 94% 29.71 in 3.0 mi SSE 9.2 mph 23.0 mph N/A Rain , Thunderstorm Light Thunderstorms and Rain
9:15 AM 66.2 °F - 64.4 °F 94% 29.71 in 5.0 mi South 3.5 mph - N/A Rain Light Rain
9:35 AM 68.0 °F - 64.4 °F 88% 29.70 in 5.0 mi SSE 8.1 mph - N/A Rain Light Rain
9:55 AM 68.0 °F - 66.2 °F 94% 29.71 in 4.0 mi SSE 8.1 mph - N/A Rain Light Rain
10:35 AM 64.4 °F - 62.6 °F 94% 29.70 in 4.0 mi South 10.4 mph 28.8 mph N/A   Overcast
11:15 AM 68.0 °F - 62.6 °F 83% 29.67 in 5.0 mi South 16.1 mph 34.5 mph N/A   Mostly Cloudy
11:35 AM 68.0 °F - 62.6 °F 83% 29.66 in 5.0 mi SSW 17.3 mph 28.8 mph N/A   Haze
11:55 AM 68.0 °F - 62.6 °F 83% 29.65 in 4.0 mi South 13.8 mph 27.6 mph N/A   Haze
12:15 PM 69.8 °F - 64.4 °F 83% 29.64 in 5.0 mi South 17.3 mph 25.3 mph N/A   Haze
12:35 PM 68.0 °F - 64.4 °F 88% 29.63 in 4.0 mi South 15.0 mph 31.1 mph N/A   Overcast
12:55 PM 69.8 °F - 62.6 °F 78% 29.62 in 7.0 mi South 17.3 mph 28.8 mph N/A   Scattered Clouds
1:15 PM 69.8 °F - 64.4 °F 83% 29.60 in 7.0 mi South 19.6 mph 29.9 mph N/A   Scattered Clouds
1:35 PM 68.0 °F - 62.6 °F 83% 29.60 in 7.0 mi South 15.0 mph 28.8 mph N/A   Scattered Clouds
1:55 PM 69.8 °F - 62.6 °F 78% 29.60 in 10.0 mi SSW 17.3 mph 27.6 mph N/A   Scattered Clouds
2:15 PM 69.8 °F - 62.6 °F 78% 29.61 in 10.0 mi SSW 13.8 mph 23.0 mph N/A   Scattered Clouds
2:35 PM 69.8 °F - 60.8 °F 73% 29.60 in 10.0 mi SSW 10.4 mph 20.7 mph N/A   Clear
2:55 PM 69.8 °F - 62.6 °F 78% 29.60 in 10.0 mi SSW 9.2 mph 19.6 mph N/A   Clear
3:15 PM 69.8 °F - 60.8 °F 73% 29.60 in 10.0 mi SSW 9.2 mph 16.1 mph N/A   Clear
3:35 PM 69.8 °F - 60.8 °F 73% 29.61 in 10.0 mi South 9.2 mph - N/A   Clear
3:55 PM 68.0 °F - 60.8 °F 78% 29.60 in 10.0 mi South 8.1 mph - N/A   Clear
4:15 PM 69.8 °F - 60.8 °F 73% 29.61 in 10.0 mi South 8.1 mph - N/A   Clear
4:35 PM 69.8 °F - 60.8 °F 73% 29.60 in 10.0 mi South 10.4 mph - N/A   Clear
4:55 PM 69.8 °F - 59.0 °F 68% 29.60 in 10.0 mi South 8.1 mph - N/A   Clear
5:15 PM 68.0 °F - 59.0 °F 73% 29.59 in 10.0 mi South 9.2 mph - N/A   Clear
5:35 PM 68.0 °F - 57.2 °F 68% 29.59 in 10.0 mi South 8.1 mph - N/A   Clear
5:55 PM 64.4 °F - 59.0 °F 83% 29.60 in 7.0 mi South 5.8 mph - N/A   Clear
6:15 PM 64.4 °F - 55.4 °F 73% 29.61 in 7.0 mi SSW 6.9 mph - N/A   Clear
6:55 PM 62.6 °F - 55.4 °F 77% 29.63 in 7.0 mi SSW 6.9 mph - N/A   Clear
7:15 PM 62.6 °F - 53.6 °F 72% 29.65 in 7.0 mi SSW 5.8 mph - N/A   Clear
7:35 PM 62.6 °F - 53.6 °F 72% 29.65 in 7.0 mi South 4.6 mph - N/A   Clear
7:55 PM 62.6 °F - 51.8 °F 68% 29.65 in 7.0 mi SW 5.8 mph - N/A   Clear
8:15 PM 64.4 °F - 50.0 °F 59% 29.66 in 10.0 mi SSW 5.8 mph - N/A   Clear
8:35 PM 64.4 °F - 46.4 °F 52% 29.67 in 7.0 mi SSW 6.9 mph - N/A   Clear
8:55 PM 64.4 °F - 46.4 °F 52% 29.68 in 7.0 mi SW 6.9 mph - N/A   Clear
9:15 PM 64.4 °F - 46.4 °F 52% 29.70 in 7.0 mi SW 10.4 mph 16.1 mph N/A   Clear
9:35 PM 64.4 °F - 48.2 °F 56% 29.70 in 7.0 mi SW 8.1 mph - N/A   Clear
10:15 PM 64.4 °F - 48.2 °F 56% 29.71 in 7.0 mi SW 8.1 mph - N/A   Clear
10:35 PM 62.6 °F - 48.2 °F 59% 29.72 in 7.0 mi SW 9.2 mph - N/A   Clear
10:55 PM 62.6 °F - 48.2 °F 59% 29.72 in 7.0 mi SW 12.7 mph 18.4 mph N/A   Clear
11:15 PM 62.6 °F - 48.2 °F 59% 29.73 in 7.0 mi SW 9.2 mph 17.3 mph N/A   Clear
11:35 PM 62.6 °F - 48.2 °F 59% 29.73 in 7.0 mi SW 11.5 mph 18.4 mph N/A   Clear
11:55 PM 60.8 °F - 48.2 °F 63% 29.73 in 7.0 mi SW 9.2 mph 17.3 mph N/A   Clear